Location: Gebenbach
(49.5378°N, 11.8735°E)
Time: 05:14:42
(UTC+00:00)

Cosmos 2074 Rocket - Pass Details

Date: 29 October 2020
Orbit: 966 x 987 km, 82.9° (Epoch: 25 November)

Event Time Altitude Azimuth Distance (km) Brightness Sun altitude
Rises 18:50:38 0° 351° (N) 3,674 7.3 -28.9°
Reaches altitude 10° 18:53:10 10° 353° (N) 2,721 6.5 -29.3°
Enters shadow 18:58:06 57° 11° (N) 1,131 4.2 -30.1°
